Location: Finney State Fishing Lake and Wildlife Area
(38.1834°N, 100.3310°W)
Time: 11:34:33
(UTC+00:00)

BlueWalker 3 - Pass Details

Date: 05 December 2022
Orbit: 499 x 517 km, 53.2° (Epoch: 29 January)

Event Time Altitude Azimuth Distance (km) Brightness Sun altitude
Rises 00:54:19 0° 320° (NW) 2,626 5.9 -17.8°
Reaches altitude 10° 00:57:52 10° 353° (N) 1,732 4.6 -18.5°
Enters shadow 00:58:32 11° 3° (N) 1,652 4.4 -18.6°
